This demonstration page uses our WeatherBlox Daily Observations layout. Learn more.

Left ArrowRight Arrow

Hourly Observations for December 10, 2017

Temp ( °F °C ) Dew Point ( °F °C ) Humidity (%) Winds ( mph kmh ) Pressure ( in mb ) Visibility ( mi km ) Precip ( " mm )
12:53 am 00:53 Clear 30 -1.1 27 -2.8 88 88 WSW 6 9 30.39 1029 10 16 0.00 0.00
1:53 am 01:53 Clear 29 -1.7 26 -3.3 89 89 NW 5 7 30.38 1029 10 16 0.00 0.00
2:53 am 02:53 Clear 29 -1.7 26 -3.3 89 89 WSW 7 11 30.38 1029 10 16 0.00 0.00
3:53 am 03:53 Clear 28 -2.2 25 -3.9 88 88 NNW 6 9 30.39 1029 10 16 0.00 0.00
4:53 am 04:53 Clear 27 -2.8 24 -4.4 89 89 NW 3 6 30.40 1029 10 16 0.00 0.00
5:53 am 05:53 Clear 25 -3.9 23 -5 92 92 N 7 11 30.42 1030 10 16 0.00 0.00
6:53 am 06:53 Clear 25 -3.9 22 -5.6 88 88 N 5 7 30.45 1031 10 16 0.00 0.00
7:53 am 07:53 Sunny 26 -3.3 22 -5.6 84 84 NNW 6 9 30.48 1032 10 16 0.00 0.00
8:53 am 08:53 Sunny 31 -0.6 27 -2.8 85 85 NNW 3 6 30.48 1032 10 16 0.00 0.00
9:53 am 09:53 Sunny 39 3.9 31 -0.6 73 73 NNE 3 6 30.48 1032 10 16 0.00 0.00
10:53 am 10:53 Sunny 48 8.9 30 -1.1 50 50 Calm 30.48 1032 10 16 0.00 0.00
11:53 am 11:53 Sunny 57 13.9 27 -2.8 32 32 SW 3 6 30.44 1031 10 16 0.00 0.00
12:53 pm 12:53 Sunny 61 16.1 24 -4.4 24 24 W 7 11 30.41 1030 10 16 0.00 0.00
1:53 pm 13:53 Sunny 63 17.2 21 -6.1 20 20 SSW 9 15 30.37 1029 10 16 0.00 0.00
2:53 pm 14:53 Sunny 65 18.3 22 -5.6 19 19 WSW 10 17 30.36 1028 10 16 0.00 0.00
3:53 pm 15:53 Sunny 63 17.2 19 -7.2 18 18 SW 9 15 30.35 1028 10 16 0.00 0.00
4:53 pm 16:53 Sunny 62 16.7 22 -5.6 21 21 SSW 8 13 30.35 1028 10 16 0.00 0.00
5:53 pm 17:53 Clear 54 12.2 26 -3.3 34 34 S 5 7 30.36 1028 10 16 0.00 0.00
6:53 pm 18:53 Clear 49 9.4 27 -2.8 43 43 SE 3 6 30.38 1029 10 16 0.00 0.00
7:53 pm 19:53 Clear 45 7.2 27 -2.8 49 49 Calm 30.39 1029 10 16 0.00 0.00
8:53 pm 20:53 Clear 42 5.6 28 -2.2 58 58 Calm 30.39 1029 10 16 0.00 0.00
9:53 pm 21:53 Clear 35 1.7 29 -1.7 78 78 WNW 3 6 30.41 1030 10 16 0.00 0.00
10:53 pm 22:53 Clear 34 1.1 28 -2.2 79 79 Calm 30.39 1029 10 16 0.00 0.00
11:53 pm 23:53 Clear 33 0.6 28 -2.2 82 82 Calm 30.37 1028 10 16 0.00 0.00

Powered by AerisWeather